Retour au catalogue

EUTE W3B

ActifCommunicationsHEO
NORAD 37206·PAYLOAD·🇪🇺 EU

Lancé Oct 28, 2010 depuis Guiana Space Centre

Loading…

Prochains Passages (prochaines 24 heures)

TLE

FraisSource: Space-Track

Époque: Sep 14, 2026, 20:08 UTC

1 37206U 10056A   26257.83908269  .00014130  00000-0  16943-2 0  9991
2 37206   2.5030 359.9971 6880031 163.5921 241.4818  2.81900154144698

Suivez EUTE W3B en temps réel avec AllMySat

Download on the App Store